Wrangell, AK

11:30 AM AKST on February 11, 2016 (GMT -0900)
Wrangell

Weather History for PAWG - September, 2013

Change the Weather History Date:

Saturday, September 7, 2013

  Actual Average Record
Temperature  
Mean Temperature 61 °F -  
Max Temperature 71 °F 59 °F 71 °F (1986)
Min Temperature 51 °F 45 °F 35 °F (1967)
Degree Days  
Heating Degree Days 4    
Growing Degree Days 11 (Base 50)    
Moisture  
Dew Point 53 °F    
Average Humidity 76    
Maximum Humidity 94    
Minimum Humidity 56    
Precipitation  
Precipitation 0.00 in - - ()
Sea Level Pressure  
Sea Level Pressure 30.03 in    
Wind  
Wind Speed 4 mph (SE)    
Max Wind Speed 18 mph    
Max Gust Speed 26 mph    
Visibility 10 miles    
Events      
Averages and records for this station are not official NWS values.
T = Trace of Precipitation, MM = Missing Value Source: NWS Daily Summary

Daily Weather History Graph

Daily Weather History Graph

Search for Another Location

Airport or City:

Trip Planner

Search our weather history database for the weather conditions in past years. The results will help you decide how hot, cold, wet, or windy it might be!

Date:

Astronomy

Sep. 07, 2013 Rise Set
Actual Time 6:05 AM AKDT 7:27 PM AKDT
Civil Twilight 5:26 AM AKDT 8:06 PM AKDT
Nautical Twilight 4:38 AM AKDT 8:54 PM AKDT
Astronomical Twilight 3:43 AM AKDT 9:48 PM AKDT
Moon 9:04 AM AKDT (9/7) 7:48 PM AKDT (9/7)
Length of Visible Light 14h 40m
Length of Day
13h 22m
Waxing Crescent, 6% of the Moon is Illuminated
Sep 7
Waxing Crescent
Sep 12
First Quarter
Sep 19
Full
Sep 26
Last Quarter
Oct 4
New

Hourly Weather History & Observations

Time (AKDT) Temp. Dew Point Humidity Pressure Visibility Wind Dir Wind Speed Gust Speed Precip Events Conditions
12:16 AM 55.4 °F 51.8 °F 88% 30.15 in 10.0 mi SE 5.8 mph - N/A   Clear
12:36 AM 55.4 °F 51.8 °F 88% 30.15 in 10.0 mi SE 5.8 mph - N/A   Clear
12:56 AM 55.4 °F 51.8 °F 88% 30.14 in 10.0 mi SE 5.8 mph - N/A   Clear
1:16 AM 55.4 °F 51.8 °F 88% 30.14 in 10.0 mi SE 3.5 mph - N/A   Clear
1:36 AM 55.4 °F 51.8 °F 88% 30.14 in 10.0 mi SE 4.6 mph - N/A   Clear
1:56 AM 55.4 °F 51.8 °F 88% 30.14 in 10.0 mi SSE 4.6 mph - N/A   Partly Cloudy
2:16 AM 55.4 °F 51.8 °F 88% 30.14 in 10.0 mi South 3.5 mph - N/A   Clear
2:36 AM 55.4 °F 51.8 °F 88% 30.14 in 10.0 mi Calm Calm - N/A   Clear
2:56 AM 53.6 °F 50.0 °F 88% 30.13 in 10.0 mi Calm Calm - N/A   Clear
3:16 AM 53.6 °F 50.0 °F 88% 30.13 in 10.0 mi Calm Calm - N/A   Clear
3:36 AM 53.6 °F 50.0 °F 88% 30.13 in 10.0 mi Calm Calm - N/A   Clear
3:56 AM 53.6 °F 48.2 °F 82% 30.14 in 10.0 mi Calm Calm - N/A   Partly Cloudy
4:16 AM 53.6 °F 50.0 °F 88% 30.13 in 10.0 mi Calm Calm - N/A   Mostly Cloudy
4:36 AM 51.8 °F 48.2 °F 88% 30.13 in 10.0 mi Calm Calm - N/A   Mostly Cloudy
4:56 AM 51.8 °F 48.2 °F 88% 30.13 in 10.0 mi Calm Calm - N/A   Mostly Cloudy
5:16 AM 53.6 °F 48.2 °F 82% 30.12 in 10.0 mi SE 4.6 mph - N/A   Partly Cloudy
5:36 AM 53.6 °F 50.0 °F 88% 30.12 in 10.0 mi SSE 4.6 mph - N/A   Clear
5:56 AM 53.6 °F 48.2 °F 82% 30.12 in 10.0 mi South 4.6 mph - N/A   Scattered Clouds
6:16 AM 53.6 °F 48.2 °F 82% 30.12 in 10.0 mi South 3.5 mph - N/A   Scattered Clouds
6:36 AM 53.6 °F 50.0 °F 88% 30.12 in 10.0 mi SSE 4.6 mph - N/A   Scattered Clouds
6:56 AM 53.6 °F 50.0 °F 88% 30.12 in 10.0 mi SE 3.5 mph - N/A   Scattered Clouds
7:16 AM 53.6 °F 51.8 °F 94% 30.11 in 10.0 mi Calm Calm - N/A   Scattered Clouds
7:36 AM 55.4 °F 51.8 °F 88% 30.10 in 10.0 mi East 3.5 mph - N/A   Scattered Clouds
7:56 AM 53.6 °F 51.8 °F 94% 30.10 in 10.0 mi Calm Calm - N/A   Mostly Cloudy
8:16 AM 55.4 °F 51.8 °F 88% 30.10 in 10.0 mi ESE 3.5 mph - N/A   Mostly Cloudy
8:36 AM 55.4 °F 53.6 °F 94% 30.10 in 10.0 mi East 3.5 mph - N/A   Mostly Cloudy
8:56 AM 57.2 °F 53.6 °F 88% 30.09 in 10.0 mi SE 4.6 mph - N/A   Scattered Clouds
9:16 AM 57.2 °F 53.6 °F 88% 30.09 in 10.0 mi Calm Calm - N/A   Scattered Clouds
9:36 AM 57.2 °F 53.6 °F 88% 30.09 in 10.0 mi Calm Calm - N/A   Scattered Clouds
9:56 AM 57.2 °F 53.6 °F 88% 30.08 in 10.0 mi Calm Calm - N/A   Scattered Clouds
10:16 AM 59.0 °F 53.6 °F 82% 30.08 in 10.0 mi North 3.5 mph - N/A   Scattered Clouds
10:36 AM 57.2 °F 53.6 °F 88% 30.07 in 10.0 mi Calm Calm - N/A   Scattered Clouds
10:56 AM 60.8 °F 53.6 °F 77% 30.07 in 10.0 mi Calm Calm - N/A   Scattered Clouds
11:16 AM 60.8 °F 53.6 °F 77% 30.06 in 10.0 mi NNW 4.6 mph - N/A   Scattered Clouds
11:36 AM 60.8 °F 55.4 °F 82% 30.05 in 10.0 mi NNW 6.9 mph - N/A   Scattered Clouds
11:56 AM 60.8 °F 53.6 °F 77% 30.05 in 10.0 mi NW 5.8 mph - N/A   Scattered Clouds
12:16 PM 62.6 °F 53.6 °F 72% 30.04 in 10.0 mi NNW 6.9 mph - N/A   Scattered Clouds
12:36 PM 60.8 °F 53.6 °F 77% 30.04 in 10.0 mi NW 4.6 mph - N/A   Scattered Clouds
12:56 PM 62.6 °F 53.6 °F 72% 30.04 in 10.0 mi NNW 5.8 mph - N/A   Scattered Clouds
1:16 PM 62.6 °F 55.4 °F 77% 30.03 in 10.0 mi North 3.5 mph - N/A   Scattered Clouds
1:36 PM 64.4 °F 55.4 °F 73% 30.03 in 10.0 mi Calm Calm - N/A   Scattered Clouds
1:56 PM 64.4 °F 55.4 °F 73% 30.02 in 10.0 mi Calm Calm - N/A   Scattered Clouds
2:16 PM 64.4 °F 55.4 °F 73% 30.01 in 10.0 mi NNW 3.5 mph - N/A   Scattered Clouds
2:36 PM 64.4 °F 55.4 °F 73% 30.01 in 10.0 mi NNW 4.6 mph - N/A   Scattered Clouds
2:56 PM 66.2 °F 55.4 °F 68% 30.00 in 10.0 mi Calm Calm - N/A   Scattered Clouds
3:16 PM 64.4 °F 55.4 °F 73% 29.99 in 10.0 mi Calm Calm - N/A   Scattered Clouds
3:36 PM 62.6 °F 53.6 °F 72% 29.99 in 10.0 mi North 3.5 mph - N/A   Scattered Clouds
3:56 PM 62.6 °F 55.4 °F 77% 29.98 in 10.0 mi Calm Calm - N/A   Clear
4:16 PM 64.4 °F 55.4 °F 73% 29.97 in 10.0 mi North 3.5 mph - N/A   Mostly Cloudy
4:36 PM 64.4 °F 55.4 °F 73% 29.96 in 10.0 mi North 3.5 mph - N/A   Mostly Cloudy
4:56 PM 66.2 °F 55.4 °F 68% 29.96 in 10.0 mi Calm Calm - N/A   Mostly Cloudy
5:16 PM 66.2 °F 55.4 °F 68% 29.95 in 10.0 mi Calm Calm - N/A   Partly Cloudy
5:36 PM 64.4 °F 55.4 °F 73% 29.94 in 10.0 mi ESE 3.5 mph - N/A   Partly Cloudy
5:56 PM 66.2 °F 55.4 °F 68% 29.94 in 10.0 mi ESE 4.6 mph - N/A   Mostly Cloudy
6:16 PM 69.8 °F 57.2 °F 64% 29.93 in 10.0 mi Calm Calm - N/A   Mostly Cloudy
6:36 PM 69.8 °F 57.2 °F 64% 29.93 in 10.0 mi Calm Calm - N/A   Mostly Cloudy
6:56 PM 69.8 °F 57.2 °F 64% 29.93 in 10.0 mi Calm Calm - N/A   Mostly Cloudy
7:16 PM 68.0 °F 57.2 °F 68% 29.93 in 10.0 mi East 5.8 mph - N/A   Mostly Cloudy
7:36 PM 66.2 °F 57.2 °F 73% 29.92 in 10.0 mi SSE 4.6 mph - N/A   Mostly Cloudy
7:56 PM 71.6 °F 55.4 °F 57% 29.91 in 10.0 mi South 10.4 mph - N/A   Overcast
8:16 PM 71.6 °F 55.4 °F 57% 29.90 in 10.0 mi South 8.1 mph - N/A   Overcast
8:36 PM 69.8 °F 55.4 °F 60% 29.90 in 10.0 mi SSW 8.1 mph - N/A   Overcast
8:56 PM 71.6 °F 55.4 °F 57% 29.90 in 10.0 mi SSE 12.7 mph - N/A   Overcast
9:16 PM 71.6 °F 55.4 °F 57% 29.89 in 10.0 mi SE 10.4 mph - N/A   Overcast
9:36 PM 69.8 °F 55.4 °F 60% 29.89 in 10.0 mi SE 9.2 mph 19.6 mph N/A   Overcast
9:56 PM 69.8 °F 55.4 °F 60% 29.89 in 10.0 mi ESE 11.5 mph 16.1 mph N/A   Overcast
10:16 PM 69.8 °F 55.4 °F 60% 29.88 in 10.0 mi ESE 15.0 mph 21.9 mph N/A   Overcast
10:36 PM 68.0 °F 53.6 °F 60% 29.88 in 10.0 mi ESE 13.8 mph 23.0 mph N/A   Overcast
10:56 PM 69.8 °F 53.6 °F 56% 29.88 in 10.0 mi ESE 15.0 mph 26.5 mph N/A   Overcast
11:16 PM 69.8 °F 53.6 °F 56% 29.88 in 10.0 mi SE 15.0 mph 23.0 mph N/A   Clear
11:36 PM 69.8 °F 53.6 °F 56% 29.86 in 10.0 mi SE 18.4 mph 25.3 mph N/A   Mostly Cloudy
11:56 PM 69.8 °F 53.6 °F 56% 29.86 in 10.0 mi SE 17.3 mph 25.3 mph N/A   Mostly Cloudy